Погода в Ыгдыре

Турция     39°55′20″N   44°02′41″E
темп.,
°C
ветер,
м/с
пор.,
м/с
влажн.,
%
обл.,
%
осадки,
мм/ч
давл.,
гПа
погр.,
м
8 марта, пн
пн800:00+7з224967 0.0 101925
03:00+7юз115280 0.0 101825
06:00+5сз236497 0.1 101775
09:00+7всв226289 0.1 1015449
12:00+12вюв233448 0.0 10121129
15:00+14ю252557 0.0 10102443
18:00+9в0249100 1.8 1013473
21:00+6зсз225258 1.8 101655
9 марта, вт
вт900:00+4зсз36530 0.0 1017215
03:00+3зсз36530 0.0 1018148
06:00+1зсз36530 0.0 1019147
09:00+5сз45390 0.0 1019599
12:00+8сз243172 0.0 10171510
15:00+11з572086 0.0 10162243
18:00+7зюз573569 0.0 1019462
21:00+5зсз464485 0.0 1022279
10 марта, ср
ср1000:00+3зсз4644100 0.0 1023220
03:00+2з344779 0.0 1024108
06:00+1зсз364728 0.0 1025128
09:00+4сз453214 0.0 1025507
12:00+8с22270 0.0 10221330
15:00+10всв34262 0.0 10191526
18:00+9в342926 0.0 1019141
21:00+7з233964 0.0 101979
11 марта, чт
чт1100:00+6зсз2445100 0.0 1017123
03:00+5з1247100 0.0 101625
06:00+4з2251100 0.0 101322
09:00+7ссв1143100 0.0 1011350
12:00+11в2333100 0.0 10061146
15:00+13в4433100 0.0 10031797
18:00+11ссз244998 0.1 1004555
21:00+3сз9137199 4.1 10061072
12 марта, пт
пт1200:00+4зсз81247100 1.5 10081703
03:00+2сз91438100 1.6 10111815
06:00+1сз81337100 0.2 10151944
09:00+1сз101131100 0.3 10201664
12:00+4зсз8824100 0.0 10202056
15:00+5сз982477 0.0 10202217
18:00+3зсз772967 0.0 10241692
21:00+1юз463563 0.0 1029166